Find Starlink 3591

NORAD ID: 51870 Int'l Des: 2022-022 Owner: SPXS Country: US Constellation: starlink operational
LEOCIRCULAR

リアルタイム位置

3D地球を読み込み中...

Starlink 3591について

説明を読み込み中...

次回通過

Passes for default location (London). Set your location on the main map for personalized predictions.

高度履歴

Loading altitude history...

軌道要素

1 51870U 22022U 26127.31415222 .00000159 00000-0 28080-4 0 9994
2 51870 53.2160 105.9454 0001214 69.7966 290.3157 15.08836552232017
Epoch: May 7, 2026 • Age: 14 hours

現在のステータス

高度 557.2 km
速度 7.58 km/s
衛星直下点 -48.44°S, 154.29°E
打ち上げ日 Mar 3, 2022
運用期間 4.1 years
タイプ internet

技術仕様

分類 Payload
質量 297.00 kg
乾燥質量 275.00 kg
総質量 297.00 kg
長さ 0.20 m
直径 2.80 m
スパン 9.00 m
形状 Box + pan
製造者 SPXS
バスタイプ Starlink
フェーズステータス In Orbit
所有者/国 SPXS/US

Most Searched